contact:dominique.lefevre@mio.osupytheas.fr, maurice.libes@osupytheas.fr, didier.mallarino@osupytheas.fr
Project:EMSO http://www.emso-fr.org/EMSO-France
Depth: 2436.0 m
Title:EMSO Ligure Ouest : Data MII capteur AQUADOPP
Date,Latitude,Longitude,X_East,Y_North,Z_Up,Amplitude_X,Amplitude_Y,Amplitude_Z,Batterie,SoundSpeed,Heading,Pitch,Roll,Pressure,TIS,Speed,Direction
, degrees North, degrees East, m.s-1, m.s-1,m.s-1, 1, 1, 1, Volt, m.s-1, degree, degree, degree, dbar, degree_C, m.s-1, degree
2021-11-04T00:04:03,42.805,6.029,0.04,-0.03,-0.004,100.0,100.0,100.0,13.3,1505.2,331.1,-0.8,1.8,2470.646,13.28,0.05,126.9
2021-11-04T00:07:03,42.805,6.029,0.006,0.015,0.026,100.0,100.0,100.0,13.3,1505.2,327.6,-0.8,1.8,2470.685,13.28,0.016,21.8
2021-11-04T00:10:03,42.805,6.029,0.002,0.003,0.017,100.0,101.0,100.0,13.4,1505.2,324.9,-0.8,1.8,2470.632,13.28,0.003,33.7
2021-11-04T00:13:03,42.805,6.029,0.026,0.0,0.023,100.0,100.0,99.0,13.4,1505.2,329.6,-0.7,1.8,2470.612,13.28,0.026,90.0
2021-11-04T00:16:03,42.805,6.029,0.0,0.01,0.017,100.0,99.0,99.0,13.4,1505.2,327.1,-0.8,1.8,2470.654,13.28,0.01,0.0
2021-11-04T00:19:03,42.805,6.029,0.024,-0.033,-0.006,101.0,101.0,98.0,13.4,1505.2,329.3,-0.7,1.8,2470.629,13.28,0.04,144.0
2021-11-04T00:22:03,42.805,6.029,0.0,0.003,0.01,100.0,100.0,99.0,13.3,1505.2,329.9,-0.8,1.8,2470.669,13.28,0.003,0.0
2021-11-04T00:25:03,42.805,6.029,-0.007,0.005,-0.004,102.0,98.0,100.0,13.4,1505.2,327.9,-0.7,1.8,2470.603,13.28,0.008,305.5
2021-11-04T00:28:03,42.805,6.029,0.005,0.0,0.015,98.0,100.0,101.0,13.3,1505.2,326.1,-0.7,1.9,2470.642,13.28,0.005,90.0
2021-11-04T00:31:03,42.805,6.029,0.033,-0.002,0.009,99.0,102.0,100.0,13.4,1505.2,328.0,-0.8,1.8,2470.6,13.28,0.033,93.5
2021-11-04T00:34:03,42.805,6.029,0.028,0.006,-0.002,101.0,102.0,98.0,13.4,1505.2,326.7,-0.7,1.9,2470.621,13.28,0.028,77.9
2021-11-04T00:37:03,42.805,6.029,0.016,0.011,0.023,102.0,99.0,99.0,13.4,1505.2,331.3,-0.8,1.8,2470.599,13.28,0.019,55.5
2021-11-04T00:40:03,42.805,6.029,-0.013,0.001,-0.019,101.0,100.0,100.0,13.4,1505.2,327.1,-0.7,1.8,2470.581,13.28,0.013,274.4
2021-11-04T00:43:03,42.805,6.029,0.025,-0.006,0.013,100.0,101.0,99.0,13.4,1505.2,329.6,-0.7,1.8,2470.6,13.28,0.025,103.5
2021-11-04T00:46:03,42.805,6.029,-0.002,-0.006,0.004,100.0,100.0,100.0,13.4,1505.2,329.4,-0.8,1.8,2470.571,13.28,0.006,198.4
2021-11-04T00:49:03,42.805,6.029,-0.009,-0.015,-0.014,100.0,100.0,100.0,13.4,1505.2,325.7,-0.7,1.8,2470.589,13.28,0.017,211.0
2021-11-04T00:52:03,42.805,6.029,0.002,-0.004,0.007,99.0,101.0,100.0,13.4,1505.2,327.5,-0.8,1.8,2470.606,13.28,0.004,153.4
2021-11-04T00:55:03,42.805,6.029,0.0,0.027,0.017,101.0,100.0,101.0,13.3,1505.2,325.0,-0.8,1.8,2470.606,13.28,0.026,0.0
2021-11-04T00:58:03,42.805,6.029,-0.005,0.0,0.007,100.0,101.0,100.0,13.4,1505.2,327.4,-0.7,1.8,2470.633,13.28,0.005,270.0
2021-11-04T01:04:03,42.805,6.029,0.002,0.026,0.054,102.0,102.0,101.0,13.4,1505.2,329.4,-0.8,1.8,2470.645,13.28,0.026,4.4
2021-11-04T01:07:03,42.805,6.029,0.005,0.011,0.007,100.0,101.0,100.0,13.4,1505.2,328.1,-0.8,1.8,2470.636,13.28,0.012,24.4
2021-11-04T01:10:03,42.805,6.029,0.0,0.0,0.029,101.0,101.0,100.0,13.3,1505.2,326.7,-0.8,1.8,2470.619,13.28,0.0,0.0
2021-11-04T01:13:03,42.805,6.029,-0.005,0.028,0.029,100.0,101.0,99.0,13.3,1505.2,329.8,-0.8,1.8,2470.577,13.28,0.028,349.9
2021-11-04T01:16:03,42.805,6.029,-0.002,0.002,-0.014,102.0,98.0,99.0,13.4,1505.2,329.3,-0.8,1.8,2470.581,13.28,0.002,315.0
2021-11-04T01:19:03,42.805,6.029,0.02,-0.005,0.01,100.0,101.0,98.0,13.4,1505.2,326.7,-0.7,1.8,2470.629,13.28,0.02,104.0
2021-11-04T01:22:03,42.805,6.029,0.032,-0.009,0.015,100.0,101.0,99.0,13.4,1505.2,330.6,-0.7,1.8,2470.623,13.28,0.033,105.7
2021-11-04T01:25:03,42.805,6.029,-0.01,0.012,0.014,100.0,100.0,100.0,13.3,1505.2,326.0,-0.7,1.8,2470.557,13.28,0.015,320.2
2021-11-04T01:28:03,42.805,6.029,0.014,0.0,0.019,99.0,101.0,99.0,13.4,1505.2,326.5,-0.8,1.8,2470.601,13.28,0.014,90.0
2021-11-04T01:31:03,42.805,6.029,0.005,-0.004,-0.008,101.0,100.0,99.0,13.3,1505.2,326.3,-0.7,1.8,2470.62,13.28,0.006,128.7
2021-11-04T01:34:03,42.805,6.029,0.025,0.001,0.01,99.0,101.0,101.0,13.3,1505.2,328.2,-0.7,1.8,2470.601,13.28,0.025,87.7
2021-11-04T01:37:03,42.805,6.029,-0.001,-0.005,-0.012,100.0,100.0,101.0,13.4,1505.2,325.7,-0.8,1.8,2470.585,13.28,0.005,191.3
2021-11-04T01:40:03,42.805,6.029,0.0,0.015,-0.013,100.0,102.0,100.0,13.3,1505.2,330.5,-0.8,1.8,2470.625,13.28,0.015,0.0
2021-11-04T01:43:03,42.805,6.029,-0.02,0.01,-0.033,101.0,100.0,100.0,13.3,1505.2,331.5,-0.8,1.9,2470.613,13.28,0.022,296.6
2021-11-04T01:46:03,42.805,6.029,-0.006,0.005,-0.03,101.0,101.0,99.0,13.4,1505.2,329.7,-0.7,1.8,2470.571,13.28,0.007,309.8
2021-11-04T01:49:03,42.805,6.029,0.0,0.008,0.005,99.0,101.0,100.0,13.4,1505.2,325.9,-0.8,1.8,2470.639,13.28,0.008,0.0
2021-11-04T01:52:03,42.805,6.029,-0.017,0.03,0.027,100.0,100.0,100.0,13.4,1505.2,328.9,-0.8,1.8,2470.605,13.28,0.034,330.5
2021-11-04T01:55:03,42.805,6.029,0.024,0.009,0.005,100.0,101.0,101.0,13.4,1505.2,330.0,-0.7,1.8,2470.615,13.28,0.025,69.4
2021-11-04T01:58:03,42.805,6.029,-0.015,0.002,0.0,99.0,102.0,100.0,13.4,1505.2,332.1,-0.8,1.8,2470.612,13.28,0.015,277.6
2021-11-04T02:04:03,42.805,6.029,0.027,-0.04,-0.026,101.0,101.0,99.0,13.3,1505.2,330.2,-0.7,1.8,2470.624,13.28,0.048,146.0
2021-11-04T02:07:03,42.805,6.029,-0.012,-0.014,-0.027,100.0,99.0,100.0,13.3,1505.2,331.6,-0.8,1.8,2470.629,13.28,0.018,220.6
2021-11-04T02:10:03,42.805,6.029,0.009,0.0,0.014,101.0,100.0,100.0,13.3,1505.2,331.3,-0.8,1.8,2470.657,13.28,0.009,90.0
2021-11-04T02:13:03,42.805,6.029,0.018,-0.001,0.003,100.0,100.0,100.0,13.4,1505.2,329.9,-0.8,1.8,2470.649,13.28,0.018,93.2
2021-11-04T02:16:03,42.805,6.029,0.003,0.001,-0.02,101.0,101.0,99.0,13.4,1505.2,329.5,-0.8,1.8,2470.629,13.28,0.003,71.6
2021-11-04T02:19:03,42.805,6.029,0.021,-0.009,-0.002,100.0,101.0,100.0,13.3,1505.2,330.9,-0.8,1.8,2470.649,13.28,0.022,113.2
2021-11-04T02:22:03,42.805,6.029,0.007,-0.001,-0.005,100.0,101.0,100.0,13.4,1505.2,326.5,-0.8,1.8,2470.616,13.28,0.007,98.1
2021-11-04T02:25:03,42.805,6.029,0.017,-0.003,-0.003,99.0,102.0,101.0,13.4,1505.2,325.5,-0.8,1.8,2470.618,13.28,0.017,100.0
2021-11-04T02:28:03,42.805,6.029,-0.004,0.0,-0.003,99.0,102.0,100.0,13.4,1505.2,331.3,-0.8,1.8,2470.668,13.28,0.004,270.0
2021-11-04T02:31:03,42.805,6.029,0.014,-0.004,0.025,102.0,101.0,99.0,13.3,1505.2,327.4,-0.8,1.8,2470.637,13.28,0.014,105.9
2021-11-04T02:34:03,42.805,6.029,0.011,0.004,-0.014,100.0,102.0,100.0,13.4,1505.2,325.5,-0.7,1.8,2470.65,13.28,0.011,70.0
2021-11-04T02:37:03,42.805,6.029,-0.006,0.031,0.041,101.0,100.0,100.0,13.4,1505.2,326.8,-0.7,1.8,2470.617,13.28,0.031,349.0
2021-11-04T02:40:03,42.805,6.029,-0.002,0.018,0.006,101.0,100.0,100.0,13.4,1505.2,327.3,-0.8,1.8,2470.62,13.28,0.018,353.7
2021-11-04T02:43:03,42.805,6.029,0.004,-0.001,0.028,101.0,102.0,100.0,13.4,1505.2,325.1,-0.7,1.8,2470.679,13.28,0.004,104.0
2021-11-04T02:46:03,42.805,6.029,0.021,0.002,0.02,100.0,102.0,99.0,13.3,1505.2,329.9,-0.8,1.8,2470.658,13.28,0.021,84.6
2021-11-04T02:49:03,42.805,6.029,-0.004,0.02,0.044,100.0,102.0,100.0,13.3,1505.2,331.0,-0.8,1.8,2470.663,13.28,0.02,348.7
2021-11-04T02:52:03,42.805,6.029,-0.016,0.011,0.001,101.0,102.0,100.0,13.4,1505.2,325.3,-0.7,1.8,2470.62,13.28,0.019,304.5
2021-11-04T02:55:03,42.805,6.029,0.004,0.003,-0.012,100.0,102.0,100.0,13.4,1505.2,329.6,-0.7,1.8,2470.605,13.28,0.005,53.1
2021-11-04T02:58:03,42.805,6.029,-0.009,0.011,-0.012,100.0,101.0,100.0,13.4,1505.2,326.7,-0.8,1.8,2470.669,13.28,0.014,320.7
2021-11-04T03:04:03,42.805,6.029,0.005,0.009,0.026,101.0,100.0,100.0,13.4,1505.2,328.5,-0.8,1.8,2470.698,13.28,0.01,29.1
2021-11-04T03:07:03,42.805,6.029,-0.002,0.0,-0.008,101.0,101.0,100.0,13.4,1505.2,330.2,-0.7,1.8,2470.709,13.28,0.002,270.0
2021-11-04T03:10:03,42.805,6.029,-0.011,0.002,-0.015,100.0,101.0,99.0,13.4,1505.2,328.6,-0.8,1.8,2470.703,13.28,0.011,280.3
2021-11-04T03:13:03,42.805,6.029,0.019,-0.014,-0.006,99.0,102.0,100.0,13.4,1505.2,331.0,-0.8,1.8,2470.657,13.28,0.023,126.4
2021-11-04T03:16:03,42.805,6.029,0.01,0.02,0.006,101.0,100.0,100.0,13.3,1505.2,330.9,-0.8,1.9,2470.663,13.28,0.022,26.6
2021-11-04T03:19:03,42.805,6.029,-0.008,0.011,-0.023,101.0,101.0,99.0,13.4,1505.2,331.9,-0.8,1.9,2470.698,13.28,0.013,324.0
2021-11-04T03:22:03,42.805,6.029,0.009,-0.008,-0.011,101.0,100.0,100.0,13.3,1505.2,324.8,-0.8,1.8,2470.718,13.28,0.012,131.6
2021-11-04T03:25:03,42.805,6.029,0.003,-0.007,0.022,100.0,101.0,99.0,13.3,1505.2,325.9,-0.7,1.8,2470.681,13.28,0.007,156.8
2021-11-04T03:28:03,42.805,6.029,-0.007,0.004,0.024,100.0,101.0,101.0,13.4,1505.2,326.1,-0.8,1.8,2470.709,13.28,0.008,299.7
2021-11-04T03:31:03,42.805,6.029,0.03,0.003,0.01,99.0,101.0,101.0,13.4,1505.2,328.9,-0.7,1.9,2470.68,13.28,0.03,84.3
2021-11-04T03:34:03,42.805,6.029,0.001,0.005,-0.003,100.0,101.0,100.0,13.4,1505.2,330.9,-0.7,1.9,2470.702,13.28,0.005,11.3
2021-11-04T03:37:03,42.805,6.029,0.019,0.006,0.02,100.0,101.0,101.0,13.3,1505.2,327.8,-0.7,1.8,2470.7,13.28,0.019,72.5
2021-11-04T03:40:03,42.805,6.029,0.001,0.022,0.053,100.0,101.0,100.0,13.4,1505.2,327.0,-0.8,1.8,2470.708,13.28,0.022,2.6
2021-11-04T03:43:03,42.805,6.029,0.013,-0.011,0.005,102.0,101.0,99.0,13.4,1505.2,325.6,-0.7,1.8,2470.706,13.28,0.017,130.2
2021-11-04T03:46:03,42.805,6.029,0.014,-0.011,-0.016,100.0,101.0,100.0,13.4,1505.2,326.8,-0.8,1.8,2470.714,13.28,0.017,128.2
2021-11-04T03:49:03,42.805,6.029,0.004,-0.002,0.0,99.0,101.0,101.0,13.3,1505.2,327.2,-0.7,1.8,2470.722,13.28,0.004,116.6
2021-11-04T03:52:03,42.805,6.029,0.01,0.0,-0.017,102.0,99.0,100.0,13.4,1505.2,329.0,-0.7,1.8,2470.697,13.28,0.01,90.0
2021-11-04T03:55:03,42.805,6.029,0.027,0.008,-0.005,99.0,102.0,100.0,13.4,1505.2,326.4,-0.7,1.8,2470.732,13.28,0.028,73.5
2021-11-04T03:58:03,42.805,6.029,0.031,-0.007,0.009,101.0,99.0,100.0,13.4,1505.2,326.6,-0.8,1.8,2470.725,13.28,0.031,102.7
2021-11-04T04:04:03,42.805,6.029,0.024,-0.037,-0.023,98.0,101.0,100.0,13.4,1505.2,330.9,-0.8,1.8,2470.798,13.28,0.044,147.0
2021-11-04T04:07:03,42.805,6.029,-0.011,0.012,0.01,99.0,102.0,100.0,13.3,1505.2,327.8,-0.7,1.8,2470.785,13.28,0.016,317.5
2021-11-04T04:10:03,42.805,6.029,-0.016,0.006,-0.02,100.0,101.0,100.0,13.3,1505.2,326.7,-0.7,1.8,2470.753,13.28,0.017,290.6
2021-11-04T04:13:03,42.805,6.029,0.025,-0.005,0.01,99.0,101.0,101.0,13.4,1505.2,329.3,-0.8,1.8,2470.726,13.28,0.025,101.3
2021-11-04T04:16:03,42.805,6.029,0.006,-0.001,-0.004,100.0,101.0,100.0,13.3,1505.2,327.8,-0.8,1.9,2470.722,13.28,0.006,99.5
2021-11-04T04:19:03,42.805,6.029,0.004,0.001,0.002,99.0,101.0,99.0,13.4,1505.2,331.4,-0.8,1.8,2470.756,13.28,0.004,76.0
2021-11-04T04:22:03,42.805,6.029,0.019,0.0,0.044,100.0,101.0,100.0,13.4,1505.2,329.9,-0.8,1.8,2470.746,13.28,0.019,90.0
2021-11-04T04:25:03,42.805,6.029,0.004,-0.002,0.007,100.0,100.0,100.0,13.3,1505.2,329.7,-0.7,1.8,2470.743,13.28,0.004,116.6
2021-11-04T04:28:03,42.805,6.029,-0.002,0.002,0.019,98.0,102.0,101.0,13.3,1505.2,329.2,-0.7,1.8,2470.764,13.28,0.002,315.0
2021-11-04T04:31:03,42.805,6.029,0.013,-0.006,0.0,100.0,101.0,100.0,13.4,1505.2,329.3,-0.7,1.8,2470.777,13.28,0.014,114.8
2021-11-04T04:34:03,42.805,6.029,0.016,0.0,0.007,100.0,101.0,100.0,13.4,1505.2,331.5,-0.7,1.8,2470.727,13.28,0.016,90.0
2021-11-04T04:37:03,42.805,6.029,0.032,0.007,0.043,99.0,101.0,99.0,13.4,1505.2,329.7,-0.8,1.8,2470.808,13.28,0.032,77.7
2021-11-04T04:40:03,42.805,6.029,0.023,-0.007,0.011,100.0,101.0,101.0,13.3,1505.2,326.1,-0.8,1.8,2470.765,13.28,0.024,106.9
2021-11-04T04:43:03,42.805,6.029,-0.015,0.017,0.032,99.0,101.0,100.0,13.4,1505.2,329.7,-0.8,1.8,2470.731,13.28,0.022,318.6
2021-11-04T04:46:03,42.805,6.029,0.012,0.016,0.04,100.0,101.0,101.0,13.4,1505.2,327.1,-0.8,1.9,2470.755,13.28,0.02,36.9
2021-11-04T04:49:03,42.805,6.029,-0.013,-0.002,0.007,100.0,102.0,100.0,13.4,1505.2,327.4,-0.7,1.8,2470.78,13.28,0.013,261.3
2021-11-04T04:52:03,42.805,6.029,0.002,0.008,0.037,101.0,101.0,100.0,13.4,1505.2,326.4,-0.8,1.8,2470.792,13.28,0.008,14.0
2021-11-04T04:55:03,42.805,6.029,0.02,-0.005,0.025,100.0,100.0,100.0,13.3,1505.2,330.2,-0.7,1.8,2470.766,13.28,0.02,104.0
2021-11-04T04:58:03,42.805,6.029,0.004,-0.002,0.017,99.0,101.0,100.0,13.3,1505.2,329.5,-0.7,1.8,2470.771,13.28,0.004,116.6
2021-11-04T05:04:03,42.805,6.029,0.034,-0.008,0.023,100.0,101.0,100.0,13.3,1505.2,327.9,-0.7,1.8,2470.81,13.28,0.034,103.2
2021-11-04T05:07:03,42.805,6.029,0.004,0.002,0.0,100.0,102.0,98.0,13.3,1505.2,328.8,-0.7,1.8,2470.826,13.28,0.004,63.4
2021-11-04T05:10:03,42.805,6.029,0.012,-0.014,0.011,99.0,101.0,100.0,13.3,1505.2,330.9,-0.7,1.9,2470.831,13.28,0.018,139.4
2021-11-04T05:13:03,42.805,6.029,-0.016,0.004,-0.014,100.0,101.0,99.0,13.4,1505.2,327.3,-0.7,1.8,2470.808,13.28,0.016,284.0
2021-11-04T05:16:03,42.805,6.029,0.019,-0.004,0.021,100.0,101.0,100.0,13.4,1505.2,325.3,-0.8,1.8,2470.803,13.28,0.019,101.9
2021-11-04T05:19:03,42.805,6.029,0.015,0.007,0.037,100.0,100.0,100.0,13.4,1505.2,327.5,-0.8,1.8,2470.8,13.28,0.016,65.0
2021-11-04T05:22:03,42.805,6.029,0.001,0.011,0.026,100.0,100.0,100.0,13.4,1505.2,329.2,-0.8,1.8,2470.827,13.28,0.011,5.2
2021-11-04T05:25:03,42.805,6.029,0.033,-0.007,-0.011,100.0,100.0,100.0,13.3,1505.2,325.3,-0.8,1.8,2470.804,13.28,0.033,102.0
2021-11-04T05:28:03,42.805,6.029,0.021,0.001,0.026,99.0,101.0,100.0,13.3,1505.2,328.9,-0.7,1.8,2470.796,13.28,0.021,87.3
2021-11-04T05:31:03,42.805,6.029,-0.008,-0.002,0.018,98.0,100.0,101.0,13.4,1505.2,329.4,-0.7,1.9,2470.777,13.28,0.008,256.0
2021-11-04T05:34:03,42.805,6.029,0.019,0.012,0.034,100.0,100.0,100.0,13.3,1505.2,326.5,-0.8,1.8,2470.767,13.28,0.022,57.7
2021-11-04T05:37:03,42.805,6.029,-0.007,0.018,0.03,99.0,101.0,100.0,13.4,1505.2,329.5,-0.8,1.8,2470.813,13.28,0.019,338.8
2021-11-04T05:40:03,42.805,6.029,0.043,0.001,0.036,100.0,100.0,99.0,13.4,1505.2,327.6,-0.7,1.8,2470.81,13.28,0.043,88.7
2021-11-04T05:43:03,42.805,6.029,0.01,-0.004,0.01,100.0,100.0,100.0,13.3,1505.2,328.6,-0.7,1.8,2470.824,13.28,0.01,111.8
2021-11-04T05:46:03,42.805,6.029,0.007,0.011,0.037,100.0,100.0,100.0,13.4,1505.2,327.8,-0.7,1.8,2470.794,13.28,0.013,32.5
2021-11-04T05:49:03,42.805,6.029,0.005,-0.005,0.011,98.0,102.0,100.0,13.3,1505.2,327.6,-0.8,1.8,2470.838,13.28,0.007,135.0
2021-11-04T05:52:03,42.805,6.029,-0.007,0.014,0.019,99.0,101.0,100.0,13.4,1505.2,326.7,-0.8,1.8,2470.789,13.28,0.015,333.4
2021-11-04T05:55:03,42.805,6.029,0.059,-0.014,0.027,100.0,100.0,100.0,13.3,1505.2,330.5,-0.7,1.8,2470.799,13.28,0.06,103.3
2021-11-04T05:58:03,42.805,6.029,0.012,0.014,0.032,100.0,102.0,99.0,13.4,1505.2,328.1,-0.8,1.8,2470.79,13.28,0.018,40.6
2021-11-04T06:04:03,42.805,6.029,0.015,-0.01,0.007,100.0,100.0,100.0,13.3,1505.2,325.7,-0.7,1.8,2470.811,13.28,0.018,123.7
2021-11-04T06:07:03,42.805,6.029,0.023,-0.002,0.015,99.0,102.0,100.0,13.3,1505.2,329.5,-0.7,1.8,2470.805,13.28,0.023,95.0
2021-11-04T06:10:03,42.805,6.029,0.014,-0.007,-0.005,100.0,101.0,100.0,13.4,1505.2,326.7,-0.7,1.8,2470.827,13.28,0.015,116.6
2021-11-04T06:13:03,42.805,6.029,0.042,-0.015,-0.002,99.0,101.0,100.0,13.4,1505.2,326.2,-0.8,1.8,2470.851,13.28,0.044,109.6
2021-11-04T06:16:03,42.805,6.029,0.013,-0.002,0.004,99.0,100.0,101.0,13.3,1505.2,330.1,-0.7,1.8,2470.823,13.28,0.013,98.7
2021-11-04T06:19:03,42.805,6.029,0.019,-0.001,0.008,99.0,102.0,100.0,13.4,1505.2,329.4,-0.8,1.8,2470.841,13.28,0.019,93.0
2021-11-04T06:22:03,42.805,6.029,0.013,0.006,0.0,99.0,101.0,100.0,13.4,1505.2,328.8,-0.8,1.8,2470.784,13.28,0.014,65.2
2021-11-04T06:25:03,42.805,6.029,0.008,0.017,-0.007,98.0,101.0,101.0,13.3,1505.2,331.7,-0.8,1.8,2470.809,13.28,0.018,25.2
2021-11-04T06:28:03,42.805,6.029,0.011,-0.002,0.002,99.0,102.0,100.0,13.4,1505.2,328.0,-0.8,1.8,2470.842,13.28,0.011,100.3
2021-11-04T06:31:03,42.805,6.029,-0.003,0.0,-0.029,100.0,101.0,100.0,13.3,1505.2,326.8,-0.8,1.8,2470.815,13.28,0.003,270.0
2021-11-04T06:34:03,42.805,6.029,0.016,-0.004,0.006,101.0,101.0,100.0,13.4,1505.2,327.5,-0.8,1.8,2470.826,13.28,0.016,104.0
2021-11-04T06:37:03,42.805,6.029,0.041,-0.024,-0.014,100.0,101.0,100.0,13.4,1505.2,327.6,-0.7,1.8,2470.817,13.28,0.047,120.3
2021-11-04T06:40:03,42.805,6.029,0.003,-0.018,0.019,100.0,100.0,100.0,13.3,1505.2,330.0,-0.8,1.8,2470.799,13.28,0.018,170.5
2021-11-04T06:43:03,42.805,6.029,0.01,-0.014,0.0,100.0,102.0,99.0,13.4,1505.2,328.7,-0.7,1.8,2470.836,13.28,0.017,144.5
2021-11-04T06:46:03,42.805,6.029,0.025,-0.015,0.019,100.0,100.0,101.0,13.3,1505.2,331.1,-0.8,1.8,2470.802,13.28,0.029,121.0
2021-11-04T06:49:03,42.805,6.029,0.014,0.031,0.034,100.0,103.0,99.0,13.4,1505.2,327.2,-0.7,1.8,2470.85,13.28,0.034,24.3
2021-11-04T06:52:03,42.805,6.029,0.015,-0.002,0.036,99.0,101.0,100.0,13.4,1505.2,326.9,-0.8,1.8,2470.78,13.28,0.015,97.6
2021-11-04T06:55:03,42.805,6.029,0.034,-0.011,-0.025,101.0,100.0,100.0,13.4,1505.2,328.7,-0.8,1.8,2470.786,13.28,0.035,107.9
2021-11-04T06:58:03,42.805,6.029,0.006,0.003,0.011,100.0,101.0,99.0,13.3,1505.2,327.9,-0.8,1.8,2470.787,13.28,0.006,63.4
2021-11-04T07:04:03,42.805,6.029,0.019,-0.014,0.0,100.0,100.0,100.0,13.4,1505.2,329.4,-0.8,1.9,2470.884,13.28,0.023,126.4
2021-11-04T07:07:03,42.805,6.029,-0.018,0.0,-0.027,100.0,101.0,99.0,13.3,1505.2,327.0,-0.8,1.8,2470.868,13.28,0.018,270.0
2021-11-04T07:10:03,42.805,6.029,-0.009,-0.009,-0.018,100.0,101.0,100.0,13.4,1505.2,327.9,-0.8,1.8,2470.902,13.28,0.012,225.0
2021-11-04T07:13:03,42.805,6.029,0.019,-0.009,-0.003,100.0,101.0,100.0,13.4,1505.2,326.7,-0.8,1.8,2470.87,13.28,0.021,115.3
2021-11-04T07:16:03,42.805,6.029,0.01,-0.011,0.015,100.0,101.0,100.0,13.3,1505.2,328.2,-0.7,1.8,2470.822,13.28,0.014,137.7
2021-11-04T07:19:03,42.805,6.029,0.009,-0.006,0.003,100.0,104.0,100.0,13.4,1505.2,329.5,-0.8,1.8,2470.802,13.28,0.01,123.7
2021-11-04T07:22:03,42.805,6.029,0.001,0.011,0.018,100.0,101.0,100.0,13.4,1505.2,326.8,-0.8,1.8,2470.796,13.28,0.011,5.2
2021-11-04T07:25:03,42.805,6.029,-0.014,0.016,0.007,100.0,100.0,100.0,13.4,1505.2,330.3,-0.8,1.9,2470.791,13.28,0.021,318.8
2021-11-04T07:28:03,42.805,6.029,0.018,0.007,0.059,99.0,100.0,100.0,13.4,1505.2,326.3,-0.7,1.8,2470.823,13.28,0.019,68.8
2021-11-04T07:31:03,42.805,6.029,0.034,-0.015,0.019,100.0,101.0,101.0,13.3,1505.2,326.5,-0.8,1.8,2470.82,13.28,0.037,113.8
2021-11-04T07:34:03,42.805,6.029,0.017,0.004,0.042,101.0,101.0,100.0,13.3,1505.2,329.1,-0.8,1.8,2470.811,13.28,0.017,76.8
2021-11-04T07:37:03,42.805,6.029,0.016,-0.006,0.03,100.0,101.0,100.0,13.4,1505.2,329.6,-0.7,1.8,2470.777,13.28,0.017,110.6
2021-11-04T07:40:03,42.805,6.029,0.006,0.009,0.002,100.0,100.0,101.0,13.4,1505.2,324.9,-0.8,1.8,2470.828,13.28,0.01,33.7
2021-11-04T07:43:03,42.805,6.029,0.032,0.006,0.02,100.0,101.0,100.0,13.4,1505.2,328.9,-0.8,1.8,2470.819,13.28,0.032,79.4
2021-11-04T07:46:03,42.805,6.029,0.02,0.006,0.009,100.0,100.0,100.0,13.3,1505.2,331.2,-0.8,1.8,2470.82,13.28,0.02,73.3
2021-11-04T07:49:03,42.805,6.029,0.014,0.006,0.005,100.0,102.0,100.0,13.4,1505.2,326.1,-0.8,1.8,2470.8,13.28,0.015,66.8
2021-11-04T07:52:03,42.805,6.029,0.009,0.01,0.016,100.0,100.0,100.0,13.4,1505.2,327.3,-0.8,1.8,2470.78,13.28,0.013,42.0
2021-11-04T07:55:03,42.805,6.029,0.017,-0.016,-0.007,101.0,101.0,100.0,13.3,1505.2,327.5,-0.8,1.8,2470.801,13.28,0.023,133.3
2021-11-04T07:58:03,42.805,6.029,0.025,-0.017,-0.007,100.0,101.0,100.0,13.4,1505.2,329.1,-0.8,1.8,2470.792,13.28,0.03,124.2
2021-11-04T08:04:03,42.805,6.029,0.018,0.026,0.046,99.0,101.0,101.0,13.3,1505.2,327.9,-0.7,1.8,2470.841,13.28,0.031,34.7
2021-11-04T08:07:03,42.805,6.029,0.025,0.016,0.039,101.0,101.0,100.0,13.4,1505.2,329.5,-0.8,1.8,2470.821,13.28,0.029,57.4
2021-11-04T08:10:03,42.805,6.029,0.016,-0.002,0.018,101.0,102.0,100.0,13.3,1505.2,327.2,-0.7,1.8,2470.835,13.28,0.016,97.1
2021-11-04T08:13:03,42.805,6.029,0.016,0.001,-0.003,100.0,100.0,101.0,13.4,1505.2,325.6,-0.8,1.8,2470.802,13.28,0.016,86.4
2021-11-04T08:16:03,42.805,6.029,0.028,-0.01,0.008,101.0,102.0,100.0,13.4,1505.2,329.0,-0.8,1.8,2470.812,13.28,0.029,109.6
2021-11-04T08:19:03,42.805,6.029,0.002,0.0,-0.009,99.0,101.0,100.0,13.4,1505.2,329.4,-0.8,1.8,2470.809,13.28,0.002,90.0
2021-11-04T08:22:03,42.805,6.029,0.007,0.002,0.007,100.0,102.0,100.0,13.4,1505.2,328.4,-0.8,1.8,2470.847,13.28,0.007,74.1
2021-11-04T08:25:03,42.805,6.029,0.044,0.001,0.019,100.0,101.0,99.0,13.4,1505.2,328.4,-0.8,1.8,2470.841,13.28,0.044,88.7
2021-11-04T08:28:03,42.805,6.029,0.01,-0.021,0.018,100.0,101.0,100.0,13.4,1505.2,329.2,-0.8,1.8,2470.814,13.28,0.023,154.5
2021-11-04T08:31:03,42.805,6.029,0.011,0.008,0.031,100.0,101.0,100.0,13.3,1505.2,330.4,-0.8,1.8,2470.777,13.28,0.013,54.0
2021-11-04T08:34:03,42.805,6.029,0.017,-0.027,0.013,99.0,102.0,101.0,13.4,1505.2,331.2,-0.8,1.8,2470.805,13.28,0.031,147.8
2021-11-04T08:37:03,42.805,6.029,0.0,0.009,0.004,100.0,100.0,100.0,13.3,1505.2,330.7,-0.8,1.8,2470.764,13.28,0.009,0.0
2021-11-04T08:40:03,42.805,6.029,0.021,-0.014,-0.004,101.0,98.0,100.0,13.4,1505.2,331.0,-0.8,1.8,2470.741,13.28,0.025,123.7
2021-11-04T08:43:03,42.805,6.029,0.012,-0.006,-0.023,99.0,101.0,101.0,13.4,1505.2,326.9,-0.8,1.8,2470.787,13.28,0.013,116.6
2021-11-04T08:46:03,42.805,6.029,0.029,-0.014,0.024,101.0,101.0,100.0,13.4,1505.2,328.6,-0.8,1.8,2470.749,13.28,0.032,115.8
2021-11-04T08:49:03,42.805,6.029,0.021,0.001,0.019,101.0,101.0,100.0,13.4,1505.2,328.2,-0.7,1.8,2470.775,13.28,0.021,87.3
2021-11-04T08:52:03,42.805,6.029,0.015,-0.021,-0.005,100.0,101.0,100.0,13.4,1505.2,325.0,-0.8,1.8,2470.79,13.28,0.025,144.5
2021-11-04T08:55:03,42.805,6.029,0.017,-0.018,-0.023,100.0,100.0,100.0,13.4,1505.2,326.9,-0.8,1.8,2470.758,13.28,0.024,136.6
2021-11-04T08:58:03,42.805,6.029,0.023,0.015,0.048,100.0,101.0,99.0,13.4,1505.2,328.0,-0.8,1.9,2470.772,13.28,0.027,56.9
2021-11-04T09:04:03,42.805,6.029,0.02,0.0,0.0,99.0,101.0,100.0,13.4,1505.2,330.1,-0.8,1.8,2470.83,13.28,0.02,90.0
2021-11-04T09:07:03,42.805,6.029,0.015,0.015,-0.003,100.0,101.0,100.0,13.4,1505.2,328.2,-0.8,1.8,2470.807,13.28,0.021,45.0
2021-11-04T09:10:03,42.805,6.029,0.035,0.0,0.038,100.0,100.0,100.0,13.4,1505.2,329.7,-0.8,1.8,2470.741,13.28,0.035,90.0
2021-11-04T09:13:03,42.805,6.029,-0.003,0.009,0.009,100.0,100.0,100.0,13.4,1505.2,329.7,-0.7,1.8,2470.776,13.28,0.009,341.6
2021-11-04T09:16:03,42.805,6.029,0.012,-0.003,-0.018,100.0,101.0,100.0,13.4,1505.2,329.6,-0.8,1.8,2470.769,13.28,0.012,104.0
2021-11-04T09:19:03,42.805,6.029,0.035,-0.018,-0.008,99.0,101.0,99.0,13.4,1505.2,328.8,-0.8,1.8,2470.76,13.28,0.039,117.2
2021-11-04T09:22:03,42.805,6.029,0.021,-0.013,0.014,99.0,101.0,100.0,13.4,1505.2,325.4,-0.7,1.8,2470.753,13.28,0.024,121.8
2021-11-04T09:25:03,42.805,6.029,0.01,0.004,0.012,100.0,101.0,100.0,13.4,1505.2,330.9,-0.8,1.8,2470.736,13.28,0.01,68.2
2021-11-04T09:28:03,42.805,6.029,0.026,0.001,0.035,100.0,101.0,99.0,13.4,1505.2,327.8,-0.7,1.8,2470.783,13.28,0.026,87.8
2021-11-04T09:31:03,42.805,6.029,0.015,-0.008,0.016,100.0,101.0,100.0,13.4,1505.2,327.8,-0.7,1.9,2470.756,13.28,0.017,118.1
2021-11-04T09:34:03,42.805,6.029,0.011,0.016,0.012,100.0,100.0,100.0,13.4,1505.2,326.3,-0.8,1.8,2470.792,13.28,0.019,34.5
2021-11-04T09:37:03,42.805,6.029,0.016,-0.006,0.019,100.0,101.0,99.0,13.4,1505.2,329.0,-0.7,1.8,2470.738,13.28,0.017,110.6
2021-11-04T09:40:03,42.805,6.029,0.037,-0.006,-0.006,100.0,101.0,100.0,13.4,1505.2,327.3,-0.8,1.8,2470.728,13.28,0.037,99.2
2021-11-04T09:43:03,42.805,6.029,0.0,0.012,0.003,98.0,101.0,100.0,13.4,1505.2,329.1,-0.8,1.8,2470.76,13.28,0.012,0.0
2021-11-04T09:46:03,42.805,6.029,0.012,0.008,-0.006,100.0,100.0,99.0,13.4,1505.2,331.7,-0.7,1.8,2470.717,13.28,0.014,56.3
2021-11-04T09:49:03,42.805,6.029,0.008,-0.002,-0.019,100.0,101.0,98.0,13.4,1505.2,327.1,-0.7,1.8,2470.73,13.28,0.008,104.0
2021-11-04T09:52:03,42.805,6.029,0.021,0.005,-0.014,99.0,102.0,100.0,13.4,1505.2,329.6,-0.8,1.8,2470.759,13.28,0.021,76.6
2021-11-04T09:55:03,42.805,6.029,0.027,-0.008,-0.004,100.0,101.0,100.0,13.3,1505.2,327.2,-0.7,1.8,2470.685,13.28,0.028,106.5
2021-11-04T09:58:03,42.805,6.029,0.016,0.013,0.008,100.0,100.0,100.0,13.3,1505.2,329.5,-0.7,1.8,2470.728,13.28,0.02,50.9
2021-11-04T10:04:03,42.805,6.029,0.02,0.015,0.03,99.0,100.0,100.0,13.4,1505.2,327.0,-0.7,1.8,2470.78,13.28,0.025,53.1
2021-11-04T10:07:03,42.805,6.029,0.034,-0.028,-0.005,100.0,100.0,100.0,13.3,1505.2,331.1,-0.7,1.8,2470.761,13.28,0.044,129.5